Location: Rowland
(34.5359°N, 79.2929°W)
Time: 19:31:19
(UTC+00:00)

Transit 2A - Pass Details

Date: 09 October 2022
Orbit: 598 x 959 km, 66.7° (Epoch: 03 December)

Event Time Altitude Azimuth Distance (km) Brightness Sun altitude
Rises 10:55:17 0° 347° (NNW) 3,005 8.9 -5.5°
Reaches altitude 10° 10:57:52 10° 0° (N) 2,142 8.3 -5.0°
Maximum altitude 11:01:55 26° 57° (ENE) 1,427 8.2 -4.1°
Drops below altitude 10° 11:06:18 10° 113° (ESE) 2,328 10.1 -3.2°
Sets 11:09:12 0° 125° (SE) 3,323 10.5 -2.6°
